IRIDIUM 8 1 24792U 97020A 10210.77925742 +.00000144 +00000-0 +44404-4 0 01372 2 24792 086.3957 289.5716 0002533 086.7897 273.3593 14.34214599692809 IRIDIUM 7 1 24793U 97020B 10210.77291288 +.00000111 +00000-0 +32634-4 0 01325 2 24793 086.3961 289.7255 0002459 087.3626 272.7841 14.34214583692801 IRIDIUM 6 1 24794U 97020C 10210.76657023 +.00000146 +00000-0 +45245-4 0 09348 2 24794 086.3966 289.7097 0002242 085.1739 274.9702 14.34214577692805 IRIDIUM 5 1 24795U 97020D 10211.31838035 -.00000016 00000-0 -12907-4 0 2907 2 24795 086.3960 289.6220 0002438 118.2050 241.9380 14.34213559692960 IRIDIUM 4 1 24796U 97020E 10210.78559832 +.00000156 +00000-0 +48607-4 0 01518 2 24796 086.3962 289.4587 0002455 082.4094 277.7382 14.34214741692824 IRIDIUM 914 1 24836U 97030A 10210.76965989 +.00000100 +00000-0 +26913-4 0 07179 2 24836 086.3959 312.8830 0004058 076.7715 283.3944 14.37491420687571 IRIDIUM 12 1 24837U 97030B 10210.70653098 +.00000196 +00000-0 +63014-4 0 01575 2 24837 086.3993 321.0657 0002432 084.8797 275.2682 14.34220233686547 IRIDIUM 10 1 24839U 97030D 10210.69384769 +.00000160 +00000-0 +50216-4 0 01550 2 24839 086.3988 321.0655 0002449 084.7673 275.3807 14.34220060686550 IRIDIUM 13 1 24840U 97030E 10210.78264421 +.00000129 +00000-0 +38824-4 0 01145 2 24840 086.4002 321.1130 0002365 084.1091 276.0375 14.34219770686558 IRIDIUM 16 1 24841U 97030F 10210.72706396 +.00000150 +00000-0 +45425-4 0 01499 2 24841 086.4066 321.7395 0001471 140.2517 219.8799 14.35350103686734 IRIDIUM 911 1 24842U 97030G 10210.77403689 +.00000105 +00000-0 +25229-4 0 08097 2 24842 086.4486 323.7688 0015818 141.4089 218.8250 14.43256766690077 IRIDIUM 15 1 24869U 97034A 10210.49424311 -.00000605 +00000-0 -22325-3 0 01851 2 24869 086.3965 352.8222 0002438 083.0557 277.0904 14.34215065683486 IRIDIUM 17 1 24870U 97034B 10210.51128267 +.00000059 +00000-0 +13984-4 0 01524 2 24870 086.3964 352.6473 0002499 079.0337 281.1140 14.34498258683510 IRIDIUM 920 1 24871U 97034C 10210.60828153 +.00000066 +00000-0 +15277-4 0 07594 2 24871 086.3992 344.7758 0010971 334.9541 025.1116 14.38130900684784 IRIDIUM 18 1 24872U 97034D 10210.80504901 +.00000049 +00000-0 +10475-4 0 01476 2 24872 086.3973 352.8499 0002236 084.2193 275.9268 14.34218648683525 IRIDIUM 921 1 24873U 97034E 10210.81549989 +.00000298 +00000-0 +22912-4 0 01412 2 24873 086.3894 162.2945 0009732 140.8448 219.3553 14.97475648710206 IRIDIUM 26 1 24903U 97043A 10210.65184310 -.00000051 +00000-0 -25449-4 0 02497 2 24903 086.3915 226.4440 0002538 083.9071 276.2417 14.34217930677441 IRIDIUM 25 1 24904U 97043B 10210.61378528 -.00000025 +00000-0 -16007-4 0 01377 2 24904 086.3909 226.4024 0002552 084.9500 275.1977 14.34218202677405 IRIDIUM 46 1 24905U 97043C 10210.55670596 -.00000074 +00000-0 -33410-4 0 01619 2 24905 086.3920 226.7453 0002533 082.4190 277.7304 14.34217955677401 IRIDIUM 23 1 24906U 97043D 10210.60110888 -.00000025 +00000-0 -16162-4 0 01609 2 24906 086.3912 226.3350 0002510 085.4204 274.7269 14.34217781677414 IRIDIUM 22 1 24907U 97043E 10210.59475019 +.00000001 +00000-0 -68115-5 0 01281 2 24907 086.3923 226.7859 0002519 082.2050 277.9429 14.34218635677410 DUMMY MASS 1 1 24925U 97048A 10210.78914465 +.00000075 +00000-0 +57212-5 0 05954 2 24925 086.3372 121.4396 0005080 296.7573 063.3145 14.83868576698574 DUMMY MASS 2 1 24926U 97048B 10210.78251587 .00000062 00000-0 42065-5 0 5882 2 24926 086.3369 122.1528 0005978 301.3149 058.7506 14.83649131698476 IRIDIUM 29 1 24944U 97051A 10210.74406106 +.00000050 +00000-0 +10957-4 0 00922 2 24944 086.3914 257.9799 0002525 087.6798 272.4678 14.34219799674005 IRIDIUM 32 1 24945U 97051B 10210.69332531 +.00000113 +00000-0 +33190-4 0 01078 2 24945 086.3923 258.0182 0002487 084.7474 275.4005 14.34219075674015 IRIDIUM 33 1 24946U 97051C 10210.64218965 +.00000101 +00000-0 +29917-4 0 02281 2 24946 086.3838 258.1549 0009323 135.0042 225.1908 14.32531123673928 IRIDIUM 28 1 24948U 97051E 10210.64289862 +.00000058 +00000-0 +13713-4 0 09811 2 24948 086.3919 258.1748 0002215 093.9960 266.1483 14.34322647673985 IRIDIUM 30 1 24949U 97051F 10210.68698535 +.00000155 +00000-0 +48106-4 0 01473 2 24949 086.3926 258.0794 0002420 078.5896 281.5578 14.34219405673993 IRIDIUM 31 1 24950U 97051G 10210.75041230 +.00000051 +00000-0 +11125-4 0 01226 2 24950 086.3920 258.0491 0002444 082.9822 277.1648 14.34218797674013 IRIDIUM 19 1 24965U 97056A 10210.66508961 +.00000188 +00000-0 +59987-4 0 01090 2 24965 086.3963 289.6003 0002501 085.8752 274.2741 14.34214864672148 IRIDIUM 35 1 24966U 97056B 10210.67777564 -.00000516 +00000-0 -19123-3 0 01509 2 24966 086.3963 289.6156 0002470 088.5818 271.5707 14.34212792672124 IRIDIUM 36 1 24967U 97056C 10210.70235391 +.00000029 +00000-0 +33012-5 0 00973 2 24967 086.3967 289.6759 0002489 085.6608 274.4876 14.34341803672274 IRIDIUM 37 1 24968U 97056D 10210.72216648 +.00000127 +00000-0 +38200-4 0 01209 2 24968 086.3963 289.7087 0002553 089.1793 270.9702 14.34215542672136 IRIDIUM 34 1 24969U 97056E 10210.67143297 +.00000202 +00000-0 +64939-4 0 01014 2 24969 086.3964 289.6728 0002481 084.8538 275.2956 14.34214829672123 IRIDIUM 43 1 25039U 97069A 10210.72893892 +.00000120 +00000-0 +35626-4 0 01139 2 25039 086.3974 352.9033 0002398 081.3059 278.8414 14.34218845665912 IRIDIUM 41 1 25040U 97069B 10210.51329647 +.00000095 +00000-0 +26807-4 0 01008 2 25040 086.3971 352.8930 0002015 081.8097 278.3332 14.34220312665881 IRIDIUM 40 1 25041U 97069C 10210.53867422 +.00000076 +00000-0 +19957-4 0 01309 2 25041 086.3963 352.8454 0002412 084.2721 275.8749 14.34218456665909 IRIDIUM 39 1 25042U 97069D 10210.54498472 -.00000610 +00000-0 -22478-3 0 01066 2 25042 086.3988 353.0383 0002230 087.9359 272.2080 14.34216153665884 IRIDIUM 38 1 25043U 97069E 10210.47223505 +.00000094 +00000-0 +26102-4 0 01290 2 25043 086.3982 352.1336 0001739 099.3090 260.8301 14.34750821666008 IRIDIUM 42 1 25077U 97077A 10210.81142347 +.00000097 +00000-0 +27494-4 0 01230 2 25077 086.3974 352.8160 0002412 083.9363 276.2118 14.34218008661782 IRIDIUM 44 1 25078U 97077B 10210.53979509 +.00000084 +00000-0 +21775-4 0 06055 2 25078 086.3971 347.7867 0000872 121.7078 238.4203 14.36633944662417 IRIDIUM 45 1 25104U 97082A 10210.62012583 -.00000037 +00000-0 -20115-4 0 00568 2 25104 086.3908 226.4119 0002516 082.4288 277.7211 14.34218153659952 IRIDIUM 24 1 25105U 97082B 10210.67286306 +.00000122 +00000-0 +33424-4 0 06656 2 25105 086.3898 215.7725 0011427 343.8467 016.2369 14.38344244661227 IRIDIUM 47 1 25106U 97082C 10210.63281312 -.00000040 +00000-0 -21289-4 0 00498 2 25106 086.3910 226.3463 0002521 080.3485 279.7986 14.34218087659957 IRIDIUM 49 1 25108U 97082E 10210.64550670 -.00000050 +00000-0 -24979-4 0 00688 2 25108 086.3911 226.3741 0002478 083.1788 276.9690 14.34217751659966 IRIDIUM 52 1 25169U 98010A 10210.74458715 +.00000171 +00000-0 +54091-4 0 08492 2 25169 086.3990 321.2268 0002477 086.8246 273.3247 14.34220085651388 IRIDIUM 56 1 25170U 98010B 10210.73824754 +.00000183 +00000-0 +58231-4 0 05099 2 25170 086.4000 321.2855 0002472 085.7093 274.4395 14.34219864651365 IRIDIUM 54 1 25171U 98010C 10210.76996168 +.00000176 +00000-0 +55616-4 0 00756 2 25171 086.3990 321.2227 0002442 088.1582 271.9905 14.34219862651539 IRIDIUM 50 1 25172U 98010D 10210.73190120 +.00000118 +00000-0 +35114-4 0 00991 2 25172 086.3995 321.2079 0002475 084.2433 275.9057 14.34219755651362 IRIDIUM 53 1 25173U 98010E 10210.75093413 +.00000150 +00000-0 +46672-4 0 00819 2 25173 086.3985 321.2082 0002472 082.6013 277.5478 14.34219664651374 IRIDIUM 51 1 25262U 98018A 10210.67866205 +.00000236 +00000-0 +64445-4 0 01953 2 25262 086.4483 289.8184 0002405 083.6735 276.4748 14.42961015650131 IRIDIUM 61 1 25263U 98018B 10210.72851597 +.00000183 +00000-0 +58370-4 0 00420 2 25263 086.3965 289.6807 0002469 086.1427 274.0057 14.34214647646463 IRIDIUM 55 1 25272U 98019A 10210.66161302 +.00000142 +00000-0 +43732-4 0 00276 2 25272 086.3919 257.9589 0002495 083.5899 276.5589 14.34219464645659 IRIDIUM 57 1 25273U 98019B 10210.70601347 +.00000101 +00000-0 +29086-4 0 00754 2 25273 086.3919 258.1357 0002500 082.6946 277.4534 14.34219068645667 IRIDIUM 58 1 25274U 98019C 10210.71235435 +.00000107 +00000-0 +31191-4 0 08818 2 25274 086.3926 258.2566 0002444 085.1977 274.9498 14.34219287645662 IRIDIUM 59 1 25275U 98019D 10210.71869594 +.00000140 +00000-0 +42973-4 0 07241 2 25275 086.3949 258.2435 0002748 063.6747 296.4729 14.34219438645660 IRIDIUM 60 1 25276U 98019E 10210.65527327 +.00000113 +00000-0 +33413-4 0 01096 2 25276 086.3916 257.9875 0002494 084.5587 275.5894 14.34219092645657 IRIDIUM 62 1 25285U 98021A 10210.54691798 -.00000039 +00000-0 -20898-4 0 00755 2 25285 086.3951 194.8921 0002582 084.2319 275.9170 14.34216544644597 IRIDIUM 63 1 25286U 98021B 10210.76255508 +.00000008 +00000-0 -42284-5 0 00866 2 25286 086.3967 194.8966 0002489 082.6179 277.5297 14.34217019644626 IRIDIUM 64 1 25287U 98021C 10210.55960016 -.00000049 +00000-0 -24593-4 0 00331 2 25287 086.3952 194.9091 0002548 080.7153 279.4322 14.34216531644570 IRIDIUM 65 1 25288U 98021D 10210.56595474 -.00000047 +00000-0 -23955-4 0 00716 2 25288 086.3960 194.8540 0002166 084.6537 275.4898 14.34216160644597 IRIDIUM 66 1 25289U 98021E 10210.92112364 -.00000043 +00000-0 -22397-4 0 00276 2 25289 086.3954 194.6305 0002485 078.6652 281.4825 14.34216599644642 IRIDIUM 67 1 25290U 98021F 10210.50885773 -.00000044 +00000-0 -22901-4 0 08532 2 25290 086.3949 194.9003 0002551 084.0089 276.1395 14.34216450644598 IRIDIUM 68 1 25291U 98021G 10210.51521017 -.00000059 +00000-0 -28124-4 0 00667 2 25291 086.3955 194.9697 0002569 078.7671 281.3800 14.34216182644569 IRIDIUM 69 1 25319U 98026A 10210.54911267 +.00000118 +00000-0 +32994-4 0 09030 2 25319 086.3952 222.2068 0001025 111.1513 248.9800 14.37166047641683 IRIDIUM 71 1 25320U 98026B 10210.56404984 +.00000096 +00000-0 +25235-4 0 06017 2 25320 086.3940 219.3813 0002559 028.5450 331.5892 14.37743654641990 IRIDIUM 70 1 25342U 98032A 10210.54058428 -.00000034 +00000-0 -19238-4 0 00849 2 25342 086.3960 195.0841 0002448 076.3882 283.7586 14.34215087638674 IRIDIUM 72 1 25343U 98032B 10210.59765362 -.00000101 +00000-0 -43244-4 0 00745 2 25343 086.3958 194.8367 0002545 083.0012 277.1471 14.34216176638681 IRIDIUM 73 1 25344U 98032C 10210.72382955 +.00000119 +00000-0 +27013-4 0 09678 2 25344 086.4437 183.9235 0002608 093.8214 266.3285 14.47207794643668 IRIDIUM 74 1 25345U 98032D 10210.56036576 -.00000043 +00000-0 -18866-4 0 01043 2 25345 086.4460 195.0335 0002588 081.9363 278.2119 14.42946445640135 IRIDIUM 75 1 25346U 98032E 10210.88309459 -.00000014 +00000-0 -11997-4 0 01037 2 25346 086.3949 194.8796 0002559 081.8471 278.3019 14.34216282639297 IRIDIUM 03 1 25431U 98048A 10210.58841897 -.00000019 +00000-0 -13902-4 0 00327 2 25431 086.3913 226.5775 0002064 075.1328 285.0093 14.34218031625196 IRIDIUM 76 1 25432U 98048B 10210.60744197 -.00000038 +00000-0 -20602-4 0 09602 2 25432 086.3910 226.4046 0002877 070.5128 289.6370 14.34218190625186 IRIDIUM 82 1 25467U 98051A 10210.78601486 +.00000063 +00000-0 +15563-4 0 01974 2 25467 086.3984 352.8587 0001693 096.6990 263.4409 14.34218765626227 IRIDIUM 81 1 25468U 98051B 10210.77966072 +.00000071 +00000-0 +18279-4 0 00200 2 25468 086.3967 352.6632 0002491 086.1817 273.9663 14.34211928622449 IRIDIUM 80 1 25469U 98051C 10210.90019689 +.00000041 +00000-0 +75008-5 0 00299 2 25469 086.3968 352.7691 0002407 085.4865 274.6616 14.34218355622468 IRIDIUM 77 1 25471U 98051E 10210.69722384 +.00000099 +00000-0 +28340-4 0 01965 2 25471 086.3973 352.6855 0001946 054.1421 305.9956 14.34218485627639 IRIDIUM 2 1 25527U 98066A 10210.63340966 +.00000455 +00000-0 +35446-4 0 05021 2 25527 085.5576 048.5406 0009986 160.1170 200.0514 14.98383720639234 IRIDIUM 86 1 25528U 98066B 10210.72554849 +.00000176 +00000-0 +55902-4 0 02474 2 25528 086.3987 320.9163 0001728 077.7495 282.3904 14.34220525618962 IRIDIUM 84 1 25530U 98066D 10210.75726834 +.00000147 +00000-0 +45298-4 0 09039 2 25530 086.3989 321.0201 0002440 086.0597 274.0894 14.34220217616603 IRIDIUM 83 1 25531U 98066E 10210.71921532 +.00000220 +00000-0 +71608-4 0 00316 2 25531 086.3989 321.0641 0002453 085.4194 274.7291 14.34220350613953 IRIDIUM 20 1 25577U 98074A 10210.56938421 -.00000036 +00000-0 -20088-4 0 09494 2 25577 086.3914 226.3784 0002517 084.7238 275.4257 14.34218257608012 IRIDIUM 11 1 25578U 98074B 10210.59939759 -.00000021 +00000-0 -98684-5 0 01699 2 25578 086.5112 226.6086 0002551 082.2182 277.9308 14.54935943616789 IRIDIUM 14 1 25777U 99032A 10210.52692253 -.00000007 +00000-0 -66874-5 0 01345 2 25777 086.5145 194.9347 0002534 082.7950 277.3541 14.54937153591153 IRIDIUM 21 1 25778U 99032B 10210.59131600 -.00000090 +00000-0 -39356-4 0 00195 2 25778 086.3961 194.9186 0004262 060.2093 299.9522 14.34214526587691 IRIDIUM 91 1 27372U 02005A 10210.62990201 +.00000093 +00000-0 +26161-4 0 06158 2 27372 086.3938 258.3554 0004193 141.1720 218.9773 14.34219173451210 IRIDIUM 90 1 27373U 02005B 10210.75347061 +.00000256 +00000-0 +70648-4 0 05848 2 27373 086.4496 320.9031 0007444 083.4342 276.7720 14.42956159448768 IRIDIUM 94 1 27374U 02005C 10210.68919801 +.00000208 +00000-0 +33514-4 0 06982 2 27374 086.5739 257.8477 0002714 086.5570 273.5978 14.66247471452877 IRIDIUM 95 1 27375U 02005D 10210.66795556 +.00000132 +00000-0 +40045-4 0 05926 2 27375 086.3930 258.1397 0002524 080.6967 279.4514 14.34219543450501 IRIDIUM 96 1 27376U 02005E 10210.62716349 +.00000190 +00000-0 +30259-4 0 06848 2 27376 086.5737 257.8153 0002714 087.8005 272.3532 14.66247379452864 IRIDIUM 97 1 27450U 02031A 10210.75389066 +.00000201 +00000-0 +64722-4 0 04984 2 27450 086.3959 289.8275 0004474 132.0739 228.0849 14.34214404429831 IRIDIUM 98 1 27451U 02031B 10210.70945281 +.00000115 +00000-0 +28382-4 0 05489 2 27451 086.4511 353.1269 0003754 152.0701 208.0708 14.42948499429611